Regional Weather Roundup
Issued by NWS

Home | Current Version | Previous Version | Text Only | Print | Product List | Glossary On
Versions: 1 2 3 4 5 6 7 8 9 10 11 12 13 14 15 16 17 18 19 20 21 22 23 24 25 26 27 28 29 30 31 32 33 34 35 36 37 38 39 40 41 42 43 44 45 46 47 48 49 50
000
ASUS43 KMKX 230020
RWRWI

WISCONSIN REGIONAL WEATHER ROUNDUP
NATIONAL WEATHER SERVICE MILWAUKEE/SULLIVAN WI
600 PM CST WED NOV 22 2017

NOTE: "FAIR" INDICATES FEW OR NO CLOUDS BELOW 12,000 FEET WITH NO
SIGNIFICANT WEATHER AND/OR OBSTRUCTIONS TO VISIBILITY.

WIZ001-002-006>008-014>016-023>028-230100-
NORTHWEST WISCONSIN

CITY           SKY/WX    TMP DP  RH WIND       PRES   REMARKS
SUPERIOR ARPT  CLOUDY    24  17  77 SW6       30.05S WCI  16
6HR MIN TEMP:  23; 6HR MAX TEMP:  26;

ASHLAND        CLOUDY    24  13  62 S10       30.06F WCI  14
6HR MIN TEMP:  24; 6HR MAX TEMP:  26;

HAYWARD        FLURRIES  22  15  75 S9        30.04F WCI  12
6HR MIN TEMP:  22; 6HR MAX TEMP:  24; 6HR PCP: TRACE;

SIREN          LGT SNOW  23  19  83 S7        30.05F WCI  15
6HR MIN TEMP:  22; 6HR MAX TEMP:  24;

CUMBERLAND     FLURRIES  21  18  86 S9        30.05F WCI  11
RICE LAKE      CLOUDY    23  19  85 SE9       30.08F WCI  13
6HR MIN TEMP:  22; 6HR MAX TEMP:  24;

CHETEK         FLURRIES  23  18  80 S6        30.08F WCI  15
6HR MIN TEMP:  22; 6HR MAX TEMP:  24;

LADYSMITH      LGT SNOW  23  18  81 S7        30.10F WCI  15
6HR MIN TEMP:  22; 6HR MAX TEMP:  24;

EAU CLAIRE     CLOUDY    25  16  68 SE7       30.10F WCI  17
6HR MIN TEMP:  23; 6HR MAX TEMP:  26; 6HR PCP: TRACE;

MENOMONIE      CLOUDY    27  16  64 SE7       30.09F WCI  19
6HR MIN TEMP:  25; 6HR MAX TEMP:  27;

NEW RICHMOND   CLOUDY    26  17  68 SE6       30.05F WCI  19
6HR MIN TEMP:  23; 6HR MAX TEMP:  26;

OSCEOLA        CLOUDY    26  19  74 SE6       30.08F WCI  20
6HR MIN TEMP:  22; 6HR MAX TEMP:  26;

$$

WIZ003>005-009-010-017-018-230100-
NORTH CENTRAL WISCONSIN

CITY           SKY/WX    TMP DP  RH WIND       PRES   REMARKS
MANITOWISH WTR CLOUDY    21  12  66 SW8       30.03F WCI  12
6HR MIN TEMP:  21; 6HR MAX TEMP:  24;

ARBOR VITAE    CLOUDY    24  14  67 SW6       30.03F WCI  16
6HR MIN TEMP:  23; 6HR MAX TEMP:  27;

WOODRUFF       CLOUDY    24  14  67 SW6       30.03F WCI  16
6HR MIN TEMP:  23; 6HR MAX TEMP:  27;

RHINELANDER    CLOUDY    23  13  65 SW8       30.06F WCI  14
6HR MIN TEMP:  23; 6HR MAX TEMP:  26;

EAGLE RIVER    CLOUDY    23  11  60 SW5       30.04F WCI  17
6HR MIN TEMP:  22; 6HR MAX TEMP:  25;

LAND O LAKES   CLOUDY    24  13  62 S3        30.05F
6HR MIN TEMP:  22; 6HR MAX TEMP:  25;

PHILLIPS       CLOUDY    21  14  73 S10       30.05F WCI  10
6HR MIN TEMP:  21; 6HR MAX TEMP:  23;

TOMAHAWK       CLOUDY    22  13  68 S3        30.08F
6HR MIN TEMP:  22; 6HR MAX TEMP:  26;

MEDFORD        CLOUDY    23  13  67 S9        30.08F WCI  13
6HR MIN TEMP:  22; 6HR MAX TEMP:  24;

MERRILL        MOCLDY    24  13  62 SW5       30.10F WCI  19
6HR MIN TEMP:  24; 6HR MAX TEMP:  26;

$$

WIZ029-030-035-036-043>047-230100-
CENTRAL WISCONSIN

CITY           SKY/WX    TMP DP  RH WIND       PRES   REMARKS
WAUSAU         CLOUDY    25  13  60 SW9       30.10F WCI  15
6HR MIN TEMP:  25; 6HR MAX TEMP:  27;

MOSINEE        CLOUDY    25  14  63 SW6       30.13F WCI  18
MARSHFIELD     CLOUDY    25  11  55 S6        30.10F WCI  18
6HR MIN TEMP:  24; 6HR MAX TEMP:  26;

STEVENS POINT  CLOUDY    25  12  58 SW6       30.14F WCI  18
6HR MIN TEMP:  24; 6HR MAX TEMP:  26;

WAUPACA        CLOUDY    31  14  50 S3        30.16F
6HR MIN TEMP:  31; 6HR MAX TEMP:  32;

WAUTOMA        CLOUDY    29  14  53 SW6       30.17F WCI  23
6HR MIN TEMP:  27; 6HR MAX TEMP:  30;

WISC RAPIDS    CLOUDY    27  13  55 SW5       30.15F WCI  22
6HR MIN TEMP:  25; 6HR MAX TEMP:  28;

CAMP DOUGLAS     N/A     29  13  52 S3        30.14
6HR MIN TEMP:  28; 6HR MAX TEMP:  29;

$$

WIZ011>013-019>022-031-037>040-048>050-230100-
NORTHEAST WISCONSIN

CITY           SKY/WX    TMP DP  RH WIND       PRES   REMARKS
ANTIGO         CLOUDY    24  13  64 SW12      30.09F WCI  13
6HR MIN TEMP:  24; 6HR MAX TEMP:  25;

SHAWANO        CLOUDY    30  14  52 SW3       30.14F
6HR MIN TEMP:  30; 6HR MAX TEMP:  32;

OCONTO         MOCLDY    28  14  56 SW6       30.15F WCI  21
6HR MIN TEMP:  28; 6HR MAX TEMP:  30;

STURGEON BAY   CLOUDY    27  17  66 S8        30.15F WCI  19
6HR MIN TEMP:  26; 6HR MAX TEMP:  28;

GREEN BAY      CLOUDY    29  18  63 SW7       30.16F WCI  22
6HR MIN TEMP:  28; 6HR MAX TEMP:  31;

MANITOWOC      CLOUDY    29  18  63 SW5       30.19F WCI  24
6HR MIN TEMP:  28; 6HR MAX TEMP:  30;

APPLETON       CLOUDY    28  12  50 SW8       30.16S WCI  20
CLINTONVILLE   CLOUDY    28  12  50 SW6       30.15F WCI  22
OSHKOSH        CLOUDY    29  16  58 SW5       30.17F WCI  24
6HR MIN TEMP:  27; 6HR MAX TEMP:  29;

$$

WIZ032>034-041-042-053>061-230100-
SOUTHWEST WISCONSIN

CITY           SKY/WX    TMP DP  RH WIND       PRES   REMARKS
LA CROSSE      CLOUDY    32  16  51 S6        30.14F WCI  26
6HR MIN TEMP:  27; 6HR MAX TEMP:  32;

SPARTA         CLOUDY    29  16  59 S5        30.15F WCI  24
6HR MIN TEMP:  27; 6HR MAX TEMP:  29;

VIROQUA        CLOUDY    29  18  65 S7        30.13F WCI  21
6HR MIN TEMP:  26; 6HR MAX TEMP:  29;

BOSCOBEL       CLOUDY    32  14  47 CALM      30.18F HAZE
6HR MIN TEMP:  30; 6HR MAX TEMP:  33;

PRAIRIE DU CHI MOCLDY    32  12  44 CALM      30.18F
6HR MIN TEMP:  29; 6HR MAX TEMP:  32;

PLATTEVILLE    CLOUDY    31  19  61 S6        30.18F WCI  25
6HR MIN TEMP:  29; 6HR MAX TEMP:  32;

$$

WIZ056-057-062-063-064-067-068-230100-
SOUTH CENTRAL WISCONSIN

CITY           SKY/WX    TMP DP  RH WIND       PRES   REMARKS
REEDSBURG      CLOUDY    29  15  55 S6        30.16F WCI  23
6HR MIN TEMP:  28; 6HR MAX TEMP:  30;

BARABOO/DELLS  CLOUDY    29  15  55 SW6       30.16F WCI  23
6HR MIN TEMP:  28; 6HR MAX TEMP:  30;

LONE ROCK      CLOUDY    30  18  60 CALM      30.19F
6HR MIN TEMP:  29; 6HR MAX TEMP:  32;

MINERAL POINT  MOCLDY    32  19  59 CALM      30.17S
MADISON        CLOUDY    31  15  52 SW6       30.19F WCI  25
6HR MIN TEMP:  28; 6HR MAX TEMP:  31;

MIDDLETON      CLOUDY    32  16  52 SW6       30.19F WCI  26
6HR MIN TEMP:  31; 6HR MAX TEMP:  33;

WATERTOWN      CLOUDY    29  17  60 SW6       30.19F WCI  23
6HR MIN TEMP:  29; 6HR MAX TEMP:  32;

MONROE         CLOUDY    30  18  59 S7        30.19F WCI  23
JANESVILLE     CLOUDY    32  18  55 SW7       30.21F WCI  26
$$

WIZ051-052-058>065-066-070>072-230100-
SOUTHEAST WISCONSIN

CITY           SKY/WX    TMP DP  RH WIND       PRES   REMARKS
MILWAUKEE      CLOUDY    32  16  51 SW8       30.22F WCI  25
6HR MIN TEMP:  31; 6HR MAX TEMP:  34;

WAUKESHA       CLOUDY    28  14  54 SW5       30.21F WCI  23
MILWAUKEE/TIMM MOCLDY    30  12  47 SW5       30.23S WCI  25
RACINE         PTCLDY    30  17  58 SW5       30.24S WCI  25
6HR MIN TEMP:  29; 6HR MAX TEMP:  34;

BURLINGTON     PTCLDY    32  23  71 SW3       30.22S
6HR MIN TEMP:  31; 6HR MAX TEMP:  35;

KENOSHA        PTCLDY    30  16  56 SW5       30.23S WCI  25
6HR MIN TEMP:  28; 6HR MAX TEMP:  34;

FOND DU LAC    CLOUDY    30  15  53 SW7       30.18F WCI  23
6HR MIN TEMP:  28; 6HR MAX TEMP:  31;

SHEBOYGAN      PTCLDY    29  17  61 SW6       30.19F WCI  23
6HR MIN TEMP:  29; 6HR MAX TEMP:  32; 6HR PCP: TRACE;

WEST BEND      CLOUDY    30  16  55 S6        30.19F WCI  24
JUNEAU         CLOUDY    29  17  60 S7        30.20F WCI  22
6HR MIN TEMP:  27; 6HR MAX TEMP:  30;

$$

LSZ147-162-230100-
LAKE SUPERIOR

STATION/POSITION TIME  TEMP    WIND        PRES    WAVE
                       AIR SEA DIR/SP/G            HT/PER
                 (UTC) (F)     (DEG/KT/KT) (MB)    (FT/S)
DEVILS ISLAND    0000   27     210/  9/ 15 1018.8F
SAXON HARBOR     2330   26     200/  6/ 12 1017.9F
$$

LMZ867-665-643>646-230100-
LAKE MICHIGAN

STATION/POSITION TIME  TEMP    WIND        PRES    WAVE
                       AIR SEA DIR/SP/G            HT/PER




USA.gov is the U.S. government's official web portal to all federal, state and local government web resources and services.